Meteo18 Weather Cam more information Meteo18 Weather Cam


Thunder radar more information blitzortung!


Rain radar more information rain snow radar



Select another period ( hide this area )

Units Period Custom range Directly to
Metric English Both
Daily Weekly Monthly Yearly
use both date-selectors for a custom range
previous Day
With this date

WeatherUnderground graphs for this period ( click here )


Daily Summary for Friday 06 December 2019
Time Temp. ( °C ) Dew pt. ( °C ) Wind ( km/h ) from Gust ( km/h ) Pressure ( hPa ) Humid.( % ) Rainrate ( cm )
High2,1 1,8 19,5 SW ( 249/480 ) 20,9 1023,2 98 0,50
Average-0,3 -0,6 3,1 Calm #83/153 5,1 1021,7 98 0,80
Low-1,6 -2,0 -   0,0 1020,5 97 -
Daily Tabular details for Friday 06 December 2019
Time Temp. ( °C ) Dew pt. ( °C ) Wind ( km/h ) from Gust ( km/h ) Pressure ( hPa ) Humid.( % ) Rainrate ( cm )
00:00 -1,4 -1,8   Calm   1023,2 97 -
00:06 -1,4 -1,8   Calm   1023,2 97 -
00:10 -1,4 -1,8   Calm   1022,9 97 -
00:16 -1,4 -1,7   Calm   1022,9 98 -
00:20 -1,4 -1,7   Calm   1022,9 98 -
00:26 -1,4 -1,7   Calm 1,6 1022,9 98 -
00:30 -1,2 -1,5 1,4 NNW 1,6 1022,9 98 -
00:36 -1,0 -1,3 1,4 NNW 1,6 1022,9 98 -
00:40 -1,1 -1,4 1,4 NNW 3,2 1022,9 98 -
00:46 -1,2 -1,5   Calm 1,6 1022,9 98 -
00:50 -1,3 -1,6   Calm 1,6 1022,9 98 -
00:56 -1,2 -1,5   Calm   1022,9 98 -
01:00 -1,1 -1,4   Calm   1022,6 98 -
01:06 -1,2 -1,5   Calm   1022,6 98 -
01:10 -1,4 -1,8   Calm   1022,6 97 -
01:16 -1,6 -2,0   Calm   1022,6 97 -
01:20 -1,4 -1,8   Calm   1022,6 97 -
01:26 -1,2 -1,5   Calm   1022,6 98 -
01:30 -1,2 -1,5   Calm   1022,2 98 -
01:36 -1,4 -1,8   Calm   1022,2 97 -
01:40 -1,5 -1,9   Calm   1022,2 97 -
01:46 -1,3 -1,7   Calm   1022,2 97 -
01:50 -1,3 -1,6   Calm   1022,2 98 -
01:55 -1,3 -1,6   Calm   1022,2 98 -
02:01 -1,4 -1,8   Calm   1022,2 97 -
02:05 -1,6 -2,0   Calm   1022,2 97 -
02:11 -1,6 -2,0   Calm 1,6 1022,2 97 -
02:15 -1,4 -1,8   Calm 1,6 1022,2 97 -
02:21 -1,4 -1,8   Calm   1022,2 97 -
02:25 -1,4 -1,8   Calm   1022,2 97 -
02:31 -1,4 -1,8   Calm 1,6 1022,2 97 -
02:35 -1,4 -1,8   Calm   1022,2 97 -
02:41 -1,4 -1,8   Calm   1022,2 97 -
02:45 -1,6 -2,0   Calm   1022,2 97 -
02:51 -1,2 -1,5   Calm   1022,2 98 -
02:55 -1,4 -1,8 1,4 WNW 1,6 1022,2 97 -
03:01 -1,3 -1,6   Calm   1022,2 98 -
03:05 -1,1 -1,4   Calm   1022,2 98 -
03:11 -1,3 -1,6   Calm 1,6 1022,2 98 -
03:15 -1,4 -1,8   Calm   1022,2 97 -
03:21 -0,8 -1,1   Calm 1,6 1021,9 98 -
03:25 -0,7 -1,0   Calm   1021,9 98 -
03:31 -0,8 -1,1   Calm   1021,9 98 -
03:35 -1,2 -1,5   Calm 1,6 1021,9 98 -
03:41 -1,6 -2,0   Calm   1021,6 97 -
03:45 -1,4 -1,7   Calm 1,6 1021,6 98 -
03:51 -0,9 -1,2   Calm   1021,6 98 -
03:55 -0,8 -1,1   Calm   1021,6 98 -
04:01 -0,9 -1,2   Calm   1021,6 98 -
04:06 -0,9 -1,2   Calm   1021,6 98 -
04:10 -0,9 -1,2   Calm   1021,6 98 -
04:16 -0,8 -1,1   Calm   1021,6 98 -
04:20 -0,7 -1,0   Calm   1021,6 98 -
04:26 -0,7 -1,0   Calm   1021,6 98 -
04:30 -0,8 -1,1   Calm 1,6 1021,2 98 -
04:36 -0,9 -1,2 1,4 SSW 1,6 1021,6 98 -
04:40 -1,1 -1,4   Calm 1,6 1021,6 98 -
04:46 -1,2 -1,5   Calm 1,6 1021,6 98 -
04:50 -1,2 -1,5   Calm 1,6 1021,6 98 -
04:56 -1,1 -1,4   Calm   1021,6 98 -
05:00 -1,2 -1,5   Calm 1,6 1021,6 98 -
05:06 -1,3 -1,6   Calm 1,6 1021,6 98 -
05:10 -1,3 -1,6   Calm 3,2 1021,6 98 -
05:16 -1,2 -1,5 1,4 SW 1,6 1021,6 98 -
05:20 -1,1 -1,4   Calm 1,6 1021,6 98 -
05:26 -1,1 -1,4   Calm   1021,6 98 -
05:30 -1,1 -1,4   Calm   1021,6 98 -
05:36 -1,1 -1,4   Calm 1,6 1021,6 98 -
05:40 -1,1 -1,4 1,4 SSW 1,6 1021,6 98 -
05:46 -1,2 -1,5   Calm 1,6 1021,2 98 -
05:50 -1,2 -1,5   Calm 1,6 1021,2 98 -
05:56 -1,2 -1,6   Calm   1021,2 97 -
06:00 -1,3 -1,7 1,4 SSW 1,6 1021,6 97 -
06:06 -1,2 -1,6   Calm 1,6 1021,6 97 -
06:10 -1,2 -1,6   Calm 1,6 1021,6 97 -
06:16 -1,1 -1,5   Calm   1021,2 97 -
06:20 -1,1 -1,5   Calm   1021,6 97 -
06:26 -1,1 -1,5   Calm   1021,2 97 -
06:31 -1,1 -1,5   Calm   1021,2 97 -
06:35 -1,1 -1,5   Calm   1021,2 97 -
06:41 -1,0 -1,4   Calm 1,6 1021,2 97 -
06:45 -1,0 -1,4   Calm 1,6 1021,2 97 -
06:51 -1,0 -1,4   Calm   1021,2 97 -
06:55 -1,0 -1,4   Calm   1020,9 97 -
07:01 -0,9 -1,3   Calm 1,6 1021,2 97 -
07:05 -0,9 -1,3   Calm 1,6 1021,2 97 -
07:11 -0,8 -1,2 1,4 WSW 3,2 1021,2 97 -
07:15 -0,7 -1,0 3,2 SW 4,8 1021,2 98 -
07:21 -0,6 -0,9 4,7 SW 6,4 1021,2 98 -
07:25 -0,4 -0,7 3,2 SW 6,4 1021,2 98 -
07:31 -0,1 -0,4 4,7 SW 9,7 1021,2 98 -
07:35 0,0 -0,3 6,4 WSW 6,4 1021,2 98 -
07:41 0,1 -0,2 1,4 SW 8,0 1021,2 98 -
07:45 0,1 -0,2 3,2 WSW 6,4 1021,2 98 -
07:51 0,0 -0,3   Calm 4,8 1021,6 98 -
07:55 0,1 -0,2 4,7 WNW 8,0 1021,6 98 -
08:01 0,1 -0,2 1,4 WSW 6,4 1021,6 98 -
08:05 0,1 -0,2 1,4 South 1,6 1021,2 98 -
08:11 0,1 -0,2 1,4 SW 4,8 1021,2 98 -
08:15 0,1 -0,2 4,7 SW 8,0 1021,2 98 -
08:21 0,1 -0,2 3,2 SSW 4,8 1021,6 98 -
08:25 0,1 -0,2 1,4 SSW 6,4 1021,6 98 -
08:31 0,1 -0,2 1,4 South 3,2 1021,2 98 -
08:35 0,1 -0,2 1,4 SSE 3,2 1021,6 98 -
08:41 0,1 -0,2   Calm 4,8 1021,2 98 -
08:45 0,1 -0,2   Calm 3,2 1021,2 98 -
08:51 0,1 -0,2   Calm 1,6 1021,2 98 -
08:55 0,2 -0,1   Calm   1021,6 98 -
09:01 0,2 -0,1 1,4 SSW 4,8 1021,6 98 -
09:05 0,3 0,0 3,2 SW 6,4 1021,6 98 -
09:11 0,3 0,0 4,7 SSW 6,4 1021,6 98 -
09:15 0,3 0,0 6,4 SW 8,0 1021,6 98 0,30
09:21 0,4 0,1 7,9 SW 11,3 1021,6 98 0,30
09:25 0,4 0,1 6,4 SW 6,4 1021,6 98 0,30
09:31 0,4 0,1 6,4 SW 6,4 1021,6 98 0,30
09:35 0,4 0,1 9,7 SW 11,3 1021,6 98 0,50
09:41 0,5 0,2 6,4 SW 11,3 1021,6 98 0,50
09:45 0,6 0,3 6,4 SW 9,7 1021,6 98 0,50
09:51 0,6 0,3 13,0 SW 12,9 1021,6 98 0,50
09:55 0,7 0,4 7,9 SW 11,3 1021,6 98 0,50
10:01 0,8 0,5 9,7 SW 16,1 1021,6 98 0,50
10:05 0,9 0,6 6,4 SW 12,9 1021,6 98 0,50
10:11 1,1 0,8 9,7 WSW 17,7 1021,6 98 0,50
10:15 1,1 0,8 13,0 WSW 16,1 1021,6 98 0,30
10:21 1,2 0,9 6,4 SSW 14,5 1021,6 98 0,30
10:25 1,2 0,9 16,3 SW 16,1 1021,6 98 0,30
10:31 1,3 1,0 19,5 WSW 19,3 1021,6 98 0,30
10:35 1,3 1,0 11,1 West 20,9 1021,6 98 -
10:41 1,4 1,1 9,7 West 16,1 1021,9 98 -
10:45 1,4 1,1 9,7 SW 20,9 1021,6 98 -
10:51 1,4 1,1 9,7 WSW 16,1 1021,9 98 -
10:55 1,4 1,1 6,4 West 17,7 1021,9 98 -
11:01 1,5 1,2 6,4 WSW 11,3 1021,9 98 -
11:05 1,5 1,2 16,3 WSW 17,7 1021,9 98 -
11:11 1,5 1,2 7,9 SW 16,1 1021,9 98 -
11:15 1,5 1,2 19,5 WSW 19,3 1021,6 98 -
11:21 1,5 1,2 9,7 SW 17,7 1021,6 98 -
11:25 1,5 1,2 16,3 SSW 19,3 1021,6 98 -
11:31 1,5 1,2 9,7 WSW 16,1 1021,6 98 -
11:35 1,6 1,3 11,1 SW 11,3 1021,6 98 -
11:41 1,6 1,3 14,3 SW 14,5 1021,2 98 -
11:45 1,6 1,3 4,7 SW 16,1 1021,2 98 -
11:51 1,6 1,3 13,0 SW 14,5 1021,2 98 -
11:55 1,6 1,3 9,7 SW 17,7 1021,2 98 -
12:01 1,7 1,4 14,3 SW 16,1 1021,2 98 -
12:05 1,7 1,4 16,3 WSW 17,7 1021,2 98 -
12:11 1,7 1,4 11,1 SW 12,9 1021,2 98 -
12:15 1,7 1,4 6,4 WSW 12,9 1020,9 98 -
12:21 1,8 1,5 6,4 WSW 8,0 1020,9 98 -
12:25 1,8 1,5 6,4 WSW 8,0 1020,9 98 -
12:31 1,9 1,6 3,2 SW 8,0 1020,9 98 -
12:35 2,0 1,7 4,7 SW 12,9 1020,9 98 -
12:41 2,1 1,8 4,7 SW 6,4 1020,5 98 -
Daily Summary for Friday 06 December 2019
Time Temp. ( °C ) Dew pt. ( °C ) Wind ( km/h ) from Gust ( km/h ) Pressure ( hPa ) Humid.( % ) Rainrate ( cm )
High2,1 1,8 19,5 SW ( 249/480 ) 20,9 1023,2 98 0,50
Average-0,3 -0,6 3,1 Calm #83/153 5,1 1021,7 98 0,80
Low-1,6 -2,0 -   0,0 1020,5 97 -
Daily Tabular details for Friday 06 December 2019
Time Temp. ( °C ) Dew pt. ( °C ) Wind ( km/h ) from Gust ( km/h ) Pressure ( hPa ) Humid.( % ) Rainrate ( cm )
00:00 -1,4 -1,8   Calm   1023,2 97 -
00:06 -1,4 -1,8   Calm   1023,2 97 -
00:10 -1,4 -1,8   Calm   1022,9 97 -
00:16 -1,4 -1,7   Calm   1022,9 98 -
00:20 -1,4 -1,7   Calm   1022,9 98 -
00:26 -1,4 -1,7   Calm 1,6 1022,9 98 -
00:30 -1,2 -1,5 1,4 NNW 1,6 1022,9 98 -
00:36 -1,0 -1,3 1,4 NNW 1,6 1022,9 98 -
00:40 -1,1 -1,4 1,4 NNW 3,2 1022,9 98 -
00:46 -1,2 -1,5   Calm 1,6 1022,9 98 -
00:50 -1,3 -1,6   Calm 1,6 1022,9 98 -
00:56 -1,2 -1,5   Calm   1022,9 98 -
01:00 -1,1 -1,4   Calm   1022,6 98 -
01:06 -1,2 -1,5   Calm   1022,6 98 -
01:10 -1,4 -1,8   Calm   1022,6 97 -
01:16 -1,6 -2,0   Calm   1022,6 97 -
01:20 -1,4 -1,8   Calm   1022,6 97 -
01:26 -1,2 -1,5   Calm   1022,6 98 -
01:30 -1,2 -1,5   Calm   1022,2 98 -
01:36 -1,4 -1,8   Calm   1022,2 97 -
01:40 -1,5 -1,9   Calm   1022,2 97 -
01:46 -1,3 -1,7   Calm   1022,2 97 -
01:50 -1,3 -1,6   Calm   1022,2 98 -
01:55 -1,3 -1,6   Calm   1022,2 98 -
02:01 -1,4 -1,8   Calm   1022,2 97 -
02:05 -1,6 -2,0   Calm   1022,2 97 -
02:11 -1,6 -2,0   Calm 1,6 1022,2 97 -
02:15 -1,4 -1,8   Calm 1,6 1022,2 97 -
02:21 -1,4 -1,8   Calm   1022,2 97 -
02:25 -1,4 -1,8   Calm   1022,2 97 -
02:31 -1,4 -1,8   Calm 1,6 1022,2 97 -
02:35 -1,4 -1,8   Calm   1022,2 97 -
02:41 -1,4 -1,8   Calm   1022,2 97 -
02:45 -1,6 -2,0   Calm   1022,2 97 -
02:51 -1,2 -1,5   Calm   1022,2 98 -
02:55 -1,4 -1,8 1,4 WNW 1,6 1022,2 97 -
03:01 -1,3 -1,6   Calm   1022,2 98 -
03:05 -1,1 -1,4   Calm   1022,2 98 -
03:11 -1,3 -1,6   Calm 1,6 1022,2 98 -
03:15 -1,4 -1,8   Calm   1022,2 97 -
03:21 -0,8 -1,1   Calm 1,6 1021,9 98 -
03:25 -0,7 -1,0   Calm   1021,9 98 -
03:31 -0,8 -1,1   Calm   1021,9 98 -
03:35 -1,2 -1,5   Calm 1,6 1021,9 98 -
03:41 -1,6 -2,0   Calm   1021,6 97 -
03:45 -1,4 -1,7   Calm 1,6 1021,6 98 -
03:51 -0,9 -1,2   Calm   1021,6 98 -
03:55 -0,8 -1,1   Calm   1021,6 98 -
04:01 -0,9 -1,2   Calm   1021,6 98 -
04:06 -0,9 -1,2   Calm   1021,6 98 -
04:10 -0,9 -1,2   Calm   1021,6 98 -
04:16 -0,8 -1,1   Calm   1021,6 98 -
04:20 -0,7 -1,0   Calm   1021,6 98 -
04:26 -0,7 -1,0   Calm   1021,6 98 -
04:30 -0,8 -1,1   Calm 1,6 1021,2 98 -
04:36 -0,9 -1,2 1,4 SSW 1,6 1021,6 98 -
04:40 -1,1 -1,4   Calm 1,6 1021,6 98 -
04:46 -1,2 -1,5   Calm 1,6 1021,6 98 -
04:50 -1,2 -1,5   Calm 1,6 1021,6 98 -
04:56 -1,1 -1,4   Calm   1021,6 98 -
05:00 -1,2 -1,5   Calm 1,6 1021,6 98 -
05:06 -1,3 -1,6   Calm 1,6 1021,6 98 -
05:10 -1,3 -1,6   Calm 3,2 1021,6 98 -
05:16 -1,2 -1,5 1,4 SW 1,6 1021,6 98 -
05:20 -1,1 -1,4   Calm 1,6 1021,6 98 -
05:26 -1,1 -1,4   Calm   1021,6 98 -
05:30 -1,1 -1,4   Calm   1021,6 98 -
05:36 -1,1 -1,4   Calm 1,6 1021,6 98 -
05:40 -1,1 -1,4 1,4 SSW 1,6 1021,6 98 -
05:46 -1,2 -1,5   Calm 1,6 1021,2 98 -
05:50 -1,2 -1,5   Calm 1,6 1021,2 98 -
05:56 -1,2 -1,6   Calm   1021,2 97 -
06:00 -1,3 -1,7 1,4 SSW 1,6 1021,6 97 -
06:06 -1,2 -1,6   Calm 1,6 1021,6 97 -
06:10 -1,2 -1,6   Calm 1,6 1021,6 97 -
06:16 -1,1 -1,5   Calm   1021,2 97 -
06:20 -1,1 -1,5   Calm   1021,6 97 -
06:26 -1,1 -1,5   Calm   1021,2 97 -
06:31 -1,1 -1,5   Calm   1021,2 97 -
06:35 -1,1 -1,5   Calm   1021,2 97 -
06:41 -1,0 -1,4   Calm 1,6 1021,2 97 -
06:45 -1,0 -1,4   Calm 1,6 1021,2 97 -
06:51 -1,0 -1,4   Calm   1021,2 97 -
06:55 -1,0 -1,4   Calm   1020,9 97 -
07:01 -0,9 -1,3   Calm 1,6 1021,2 97 -
07:05 -0,9 -1,3   Calm 1,6 1021,2 97 -
07:11 -0,8 -1,2 1,4 WSW 3,2 1021,2 97 -
07:15 -0,7 -1,0 3,2 SW 4,8 1021,2 98 -
07:21 -0,6 -0,9 4,7 SW 6,4 1021,2 98 -
07:25 -0,4 -0,7 3,2 SW 6,4 1021,2 98 -
07:31 -0,1 -0,4 4,7 SW 9,7 1021,2 98 -
07:35 0,0 -0,3 6,4 WSW 6,4 1021,2 98 -
07:41 0,1 -0,2 1,4 SW 8,0 1021,2 98 -
07:45 0,1 -0,2 3,2 WSW 6,4 1021,2 98 -
07:51 0,0 -0,3   Calm 4,8 1021,6 98 -
07:55 0,1 -0,2 4,7 WNW 8,0 1021,6 98 -
08:01 0,1 -0,2 1,4 WSW 6,4 1021,6 98 -
08:05 0,1 -0,2 1,4 South 1,6 1021,2 98 -
08:11 0,1 -0,2 1,4 SW 4,8 1021,2 98 -
08:15 0,1 -0,2 4,7 SW 8,0 1021,2 98 -
08:21 0,1 -0,2 3,2 SSW 4,8 1021,6 98 -
08:25 0,1 -0,2 1,4 SSW 6,4 1021,6 98 -
08:31 0,1 -0,2 1,4 South 3,2 1021,2 98 -
08:35 0,1 -0,2 1,4 SSE 3,2 1021,6 98 -
08:41 0,1 -0,2   Calm 4,8 1021,2 98 -
08:45 0,1 -0,2   Calm 3,2 1021,2 98 -
08:51 0,1 -0,2   Calm 1,6 1021,2 98 -
08:55 0,2 -0,1   Calm   1021,6 98 -
09:01 0,2 -0,1 1,4 SSW 4,8 1021,6 98 -
09:05 0,3 0,0 3,2 SW 6,4 1021,6 98 -
09:11 0,3 0,0 4,7 SSW 6,4 1021,6 98 -
09:15 0,3 0,0 6,4 SW 8,0 1021,6 98 0,30
09:21 0,4 0,1 7,9 SW 11,3 1021,6 98 0,30
09:25 0,4 0,1 6,4 SW 6,4 1021,6 98 0,30
09:31 0,4 0,1 6,4 SW 6,4 1021,6 98 0,30
09:35 0,4 0,1 9,7 SW 11,3 1021,6 98 0,50
09:41 0,5 0,2 6,4 SW 11,3 1021,6 98 0,50
09:45 0,6 0,3 6,4 SW 9,7 1021,6 98 0,50
09:51 0,6 0,3 13,0 SW 12,9 1021,6 98 0,50
09:55 0,7 0,4 7,9 SW 11,3 1021,6 98 0,50
10:01 0,8 0,5 9,7 SW 16,1 1021,6 98 0,50
10:05 0,9 0,6 6,4 SW 12,9 1021,6 98 0,50
10:11 1,1 0,8 9,7 WSW 17,7 1021,6 98 0,50
10:15 1,1 0,8 13,0 WSW 16,1 1021,6 98 0,30
10:21 1,2 0,9 6,4 SSW 14,5 1021,6 98 0,30
10:25 1,2 0,9 16,3 SW 16,1 1021,6 98 0,30
10:31 1,3 1,0 19,5 WSW 19,3 1021,6 98 0,30
10:35 1,3 1,0 11,1 West 20,9 1021,6 98 -
10:41 1,4 1,1 9,7 West 16,1 1021,9 98 -
10:45 1,4 1,1 9,7 SW 20,9 1021,6 98 -
10:51 1,4 1,1 9,7 WSW 16,1 1021,9 98 -
10:55 1,4 1,1 6,4 West 17,7 1021,9 98 -
11:01 1,5 1,2 6,4 WSW 11,3 1021,9 98 -
11:05 1,5 1,2 16,3 WSW 17,7 1021,9 98 -
11:11 1,5 1,2 7,9 SW 16,1 1021,9 98 -
11:15 1,5 1,2 19,5 WSW 19,3 1021,6 98 -
11:21 1,5 1,2 9,7 SW 17,7 1021,6 98 -
11:25 1,5 1,2 16,3 SSW 19,3 1021,6 98 -
11:31 1,5 1,2 9,7 WSW 16,1 1021,6 98 -
11:35 1,6 1,3 11,1 SW 11,3 1021,6 98 -
11:41 1,6 1,3 14,3 SW 14,5 1021,2 98 -
11:45 1,6 1,3 4,7 SW 16,1 1021,2 98 -
11:51 1,6 1,3 13,0 SW 14,5 1021,2 98 -
11:55 1,6 1,3 9,7 SW 17,7 1021,2 98 -
12:01 1,7 1,4 14,3 SW 16,1 1021,2 98 -
12:05 1,7 1,4 16,3 WSW 17,7 1021,2 98 -
12:11 1,7 1,4 11,1 SW 12,9 1021,2 98 -
12:15 1,7 1,4 6,4 WSW 12,9 1020,9 98 -
12:21 1,8 1,5 6,4 WSW 8,0 1020,9 98 -
12:25 1,8 1,5 6,4 WSW 8,0 1020,9 98 -
12:31 1,9 1,6 3,2 SW 8,0 1020,9 98 -
12:35 2,0 1,7 4,7 SW 12,9 1020,9 98 -
12:41 2,1 1,8 4,7 SW 6,4 1020,5 98 -

Download your copy of this data-set  here

Our weather-data as stored at Weather Underground. Script developed by Jim McMurry. Adapted for the template by Leuven-Template.eu

You find our weather info also at:

Weather Underground

Equipment we use:

Weather-station
Davis Vue

Weather-program
Meteobridge

Weather-server
Raspberry PI 2 B+

Provider
1 and 1

Davis Vue

Meteobridge

Raspberry PI 2 B+

1 and 1